Terminal Aerodrome Forecast
Issued by NWS Sterling, VA

Current Version | Previous Version | Graphics & Text | Print | Product List | Glossary On
Versions: 1 2 3 4 5 6 7 8 9 10 11 12
000
FTUS41 KLWX 240539
TAFMRB
TAF
KMRB 240539Z 2406/2506 32006KT P6SM BKN060
     FM241000 32010KT P6SM SCT250
     FM250300 35006KT P6SM SKC=

USA.gov is the U.S. government's official web portal to all federal, state and local government web resources and services.